Weather in Beno-Yurt

Russia / Chechen Republic     43°41′18″N   45°03′07″E
temp.,
°C
wind,
m/s
gust,
m/s
humid.,
%
clouds,
%
prec.,
mm/h
press.,
hPa
HPBL,
m
28 february, sun
sun2800:00+5sw228164 0.0 101622
03:00+4nne338444 0.0 101629
06:00+4w31092100 0.1 1017417
09:00+4w2295100 0.3 101679
12:00+5nw3892100 0.5 1015520
15:00+5w3592100 1.3 1015298
18:00+4wsw3596100 0.3 1017155
21:00+3nnw3598100 1.1 1019217
1 march, mon
mon100:00+3nnw3595100 0.8 1019264
03:00+2n2397100 0.9 1020167
06:00+2n2498100 0.2 1022188
09:00+2wnw2396100 1.1 1024203
12:00+3wsw2388100 0.2 1025361
15:00+5w2272100 0.3 1025570
18:00+4wsw227689 0.1 102746
21:00+2wsw228192 0.1 102826
2 march, tue
tue200:00+1w338697 0.0 102973
03:000w228595 0.0 102827
06:000w22850 0.0 102926
09:00+3w22700 0.0 1028271
12:00+6wsw12590 0.0 1026873
15:00+8w23480 0.0 10241240
18:00+6sw33600 0.0 102351
21:00+3w35710 0.0 1024100
3 march, wed
wed300:00+2sw237885 0.0 102347
03:00+2w368093 0.0 1022179
06:00+1w31087100 0.2 1022560
09:00+4wnw51070100 0.3 10211037
12:00+6wnw6960100 0.1 10201412
15:00+6w71068100 0.4 10191101
18:00+4w4883100 3.3 1020843
21:00+3w5896100 5.7 1023487
4 march, thu
thu400:00+1wnw71287100 3.6 1024845
03:00+1wnw5117596 3.7 1026548
06:000w497799 0.0 1028439
09:00+2wnw576267 0.0 10291087
12:00+5wnw574821 0.0 10281518
15:00+7wnw353919 0.0 10271650
18:00+4n11500 0.0 102822
21:00+2ssw22700 0.0 102925